NOAA 16 DEB

Satellite information

Favourite Embed

Satellite Type and Status

DEBRISIN ORBIT

Key statistics

Satellite NOAA 16 DEB at a glance.

Uptime

8996

Days in orbit

Revolutions

≈ 14.3

Per day

Orbit

SSO

Sun Synchronous Orbit

Inclination

98.8

Latest

Satellite identification and parameters

Extended collection of information and parameters for NOAA 16 DEB.

Object identification

Identified? True

Debris? True

Object name: NOAA 16 DEB

International designator: 2000-055TS

Object number (NORAD): 42422

Object ID (CCSDS): 42422

Country: UNITED STATES OF AMERICA (US)

Current information (Y/N): Y

RCS size: SMALL

Orbital parameters

Period: 100.683 minutes

Inclination: 98.7751 deg

SMA: 7169.073 km

Apoapsis: 799.634 km

Periapsis: 782.241 km

RAAN: 222.5892 deg

Eccentricy: 0.0012131

Argument of periapsis: 61.7249 deg

Mean anomaly: 298.5155 deg

Mean motion: 14.30237937 rev/day

Mean motion (dot): 0.00006661 rev/day2

B* drag term: 0.0025831 1/REarth

Two-line elements (TLE)

Creation date: May 7, 2025, 3:14 a.m.

Reference frame: TEME

Reference center: EARTH

Epoch: May 6, 2025, 12:05 a.m. UTC

TLE line 0: 0 NOAA 16 DEB

TLE line 1: 1 42422U 00055TS 25126.00414067 .00006661 00000-0 25831-2 0 9992

TLE line 2: 2 42422 98.7751 222.5892 0012131 61.7249 298.5155 14.30237937468710

Live tracking on map

Real-time ground track for satellite NOAA 16 DEB.

In-orbit conjunctions

A list of the most updated potential collisions computed for object NOAA 16 DEB.

Target Orbit TCA Probability of collision Miss distance Type
DMSP 5D-2 F13 DEB SSO 2025-05-03 04:32:52 0.000161987 226.0 (m) DEBRIS
SAFIR 2 SSO 2025-02-06 06:15:52 0.0002547264 246.0 (m) PAYLOAD
CZ-6A DEB LEO 2024-12-03 02:51:22 0.0001694392 866.0 (m) DEBRIS
CZ-4C DEB LEO 2024-11-24 21:50:12 0.0001456391 185.0 (m) DEBRIS
CZ-6A DEB LEO 2024-11-23 13:59:04 0.0001143738 241.0 (m) DEBRIS

Associated space launch

The NOAA K, L and M POES satellites begin the fifth generation of improved environmental monitoring in support of NOAA missions. The instrument payload has significant improvements and additions/deletions. The instrument changes have effected the spacecraft subsystems and data formats.

NOAA 16 DEB was lifted into orbit during the mission ‘Titan II SLV | NOAA 16’, on board a Titan II SLV space rocket.

The launch took place on Sept. 21, 2000, 10:22 a.m. from Space Launch Complex 4W.

For more information about the launch, click the button.

Launch to space Titan II SLV | NOAA 16
Titan II SLV | NOAA 16

Agency: N/A

Status: Launch Successful

Launch date: Sept. 21, 2000, 10:22 a.m. UTC

Rocket: Titan II SLV

Launch pad: Space Launch Complex 4W

Location: Vandenberg SFB, CA, USA

...

Latest news about this satellite

There are no fresh news available about this satellite. Check back as we update our databases every day.


Newsletter sign-up

Weekly statistics, charts and insights to help you stay on top of the space industry.